| time (UTC) | temp C | wind direction | speed KPH | gust KPH | rain 1hr cm | rain 24hr cm | rain mn cm | humidity % | barometer mb |
| 20260507125219 | 14 | 354 | 4.8 | 9.7 | 0.00 | 0.00 | 0.00 | 100 | 1009.4 |
| 20260507124718 | 14 | 333 | 6.4 | 12.9 | 0.00 | 0.00 | 0.00 | 100 | 1009.4 |
| 20260507124218 | 14 | 343 | 4.8 | 12.9 | 0.00 | 0.00 | 0.00 | 100 | 1009.4 |
| 20260507123717 | 13 | 358 | 6.4 | 11.3 | 0.00 | 0.00 | 0.00 | 100 | 1009.4 |
| 20260507123217 | 13 | 310 | 4.8 | 8.0 | 0.00 | 0.00 | 0.00 | 100 | 1009.4 |
| 20260507122716 | 13 | 358 | 0.0 | 3.2 | 0.00 | 0.00 | 0.00 | 100 | 1009.4 |
| 20260507122213 | 13 | 358 | 0.0 | 6.4 | 0.00 | 0.00 | 0.00 | 100 | 1009.4 |
| 20260507121710 | 13 | 358 | 3.2 | 11.3 | 0.00 | 0.00 | 0.00 | 100 | 1009.4 |
| 20260507121208 | 14 | 358 | 6.4 | 11.3 | 0.00 | 0.00 | 0.00 | 100 | 1009.4 |
| 20260507120707 | 14 | 324 | 9.7 | 11.3 | 0.00 | 0.00 | 0.00 | 100 | 1009.4 |
| 20260507120207 | 15 | 330 | 8.0 | 12.9 | 0.00 | 0.00 | 0.00 | 100 | 1009.4 |
| 20260507115928 | 15 | 1 | 8.0 | 12.9 | 0.00 | 0.00 | 0.00 | 100 | 1009.4 |
| 20260507115205 | 14 | 7 | 11.3 | 12.9 | 0.00 | 0.00 | 0.00 | 100 | 1009.4 |
| 20260507114704 | 13 | 338 | 6.4 | 11.3 | 0.00 | 0.00 | 0.00 | 100 | 1009.4 |
| 20260507114204 | 13 | 326 | 9.7 | 9.7 | 0.00 | 0.00 | 0.00 | 100 | 1009.4 |
| 20260507113704 | 14 | 330 | 1.6 | 8.0 | 0.00 | 0.00 | 0.00 | 100 | 1009.4 |
| 20260507113424 | 14 | 358 | 1.6 | 8.0 | 0.00 | 0.00 | 0.00 | 100 | 1009.4 |
| 20260507112654 | 13 | 338 | 0.0 | 8.0 | 0.00 | 0.00 | 0.00 | 100 | 1009.4 |
| 20260507112151 | 14 | 7 | 6.4 | 8.0 | 0.00 | 0.00 | 0.00 | 100 | 1009.4 |
| 20260507111648 | 13 | 358 | 4.8 | 6.4 | 0.00 | 0.00 | 0.00 | 100 | 1009.4 |
| 20260507111148 | 14 | 355 | 0.0 | 11.3 | 0.00 | 0.00 | 0.00 | 100 | 1009.4 |
| 20260507110906 | 14 | 355 | 0.0 | 11.3 | 0.00 | 0.00 | 0.00 | 100 | 1009.4 |
| 20260507110139 | 14 | 358 | 8.0 | 11.3 | 0.00 | 0.00 | 0.00 | 100 | 1009.4 |
| 20260507105634 | 14 | 358 | 3.2 | 6.4 | 0.00 | 0.00 | 0.00 | 100 | 1009.4 |
| 20260507105133 | 14 | 358 | 0.0 | 0.0 | 0.00 | 0.00 | 0.00 | 100 | 1009.4 |
| 20260507104110 | 14 | 358 | 0.0 | 6.4 | 0.00 | 0.00 | 0.00 | 100 | 1009.4 |
| 20260507103558 | 13 | 358 | 0.0 | 6.4 | 0.00 | 0.00 | 0.00 | 100 | 1009.4 |
| 20260507103057 | 14 | 358 | 0.0 | 6.4 | 0.00 | 0.00 | 0.00 | 100 | 1009.4 |
| 20260507102541 | 14 | 358 | 0.0 | 6.4 | 0.00 | 0.00 | 0.00 | 100 | 1009.4 |
| 20260507102301 | 14 | 358 | 0.0 | 6.4 | 0.00 | 0.00 | 0.00 | 100 | 1009.4 |
| 20260507101526 | 14 | 333 | 0.0 | 9.7 | 0.00 | 0.00 | 0.00 | 100 | 1009.4 |
| 20260507101002 | 14 | 358 | 1.6 | 9.7 | 0.00 | 0.00 | 0.00 | 100 | 1009.4 |
| 20260507100458 | 14 | 338 | 3.2 | 9.7 | 0.00 | 0.00 | 0.00 | 100 | 1009.4 |
| 20260507095958 | 15 | 358 | 8.0 | 9.7 | 0.00 | 0.00 | 0.00 | 100 | 1009.4 |
| 20260507095457 | 15 | 358 | 0.0 | 0.0 | 0.00 | 0.00 | 0.00 | 100 | 1009.4 |
| 20260507094947 | 14 | 358 | 0.0 | 0.0 | 0.00 | 0.00 | 0.00 | 100 | 1009.4 |
| 20260507094420 | 14 | 358 | 0.0 | 1.6 | 0.00 | 0.00 | 0.00 | 100 | 1009.4 |
| 20260507094133 | 14 | 358 | 0.0 | 8.0 | 0.00 | 0.00 | 0.00 | 100 | 1009.4 |
| 20260507093410 | 15 | 358 | 0.0 | 8.0 | 0.00 | 0.00 | 0.00 | 100 | 1009.4 |
| 20260507092851 | 15 | 358 | 3.2 | 8.0 | 0.00 | 0.00 | 0.00 | 100 | 1009.4 |
| 20260507092350 | 15 | 358 | 1.6 | 6.4 | 0.00 | 0.00 | 0.00 | 100 | 1009.4 |
| 20260507092103 | 14 | 358 | 0.0 | 6.4 | 0.00 | 0.00 | 0.00 | 100 | 1009.4 |
| 20260507091331 | 14 | 331 | 0.0 | 6.4 | 0.00 | 0.00 | 0.00 | 100 | 1009.4 |
| 20260507090828 | 13 | 4 | 0.0 | 0.0 | 0.00 | 0.00 | 0.00 | 100 | 1009.4 |
| 20260507090319 | 14 | 4 | 0.0 | 0.0 | 0.00 | 0.00 | 0.00 | 100 | 1009.4 |
| 20260507085804 | 15 | 4 | 0.0 | 0.0 | 0.00 | 0.00 | 0.00 | 100 | 1009.4 |
| 20260507085256 | 15 | 4 | 0.0 | 0.0 | 0.00 | 0.00 | 0.00 | 100 | 1009.4 |
| 20260507084746 | 15 | 4 | 0.0 | 0.0 | 0.00 | 0.00 | 0.00 | 100 | 1009.4 |
| 20260507084245 | 15 | 4 | 0.0 | 0.0 | 0.00 | 0.00 | 0.00 | 100 | 1009.4 |
| 20260507083721 | 15 | 4 | 0.0 | 0.0 | 0.00 | 0.00 | 0.00 | 100 | 1009.4 |
| 20260507083211 | 15 | 4 | 0.0 | 0.0 | 0.00 | 0.00 | 0.00 | 100 | 1009.4 |
| 20260507082700 | 16 | 4 | 0.0 | 0.0 | 0.00 | 0.00 | 0.00 | 100 | 1009.4 |
| 20260507082148 | 16 | 4 | 0.0 | 4.8 | 0.00 | 0.00 | 0.00 | 100 | 1009.4 |
| 20260507081620 | 16 | 4 | 0.0 | 4.8 | 0.00 | 0.00 | 0.00 | 100 | 1009.4 |
| 20260507081111 | 16 | 4 | 0.0 | 9.7 | 0.00 | 0.00 | 0.00 | 100 | 1009.4 |
| 20260507080611 | 16 | 315 | 0.0 | 16.1 | 0.00 | 0.00 | 0.00 | 100 | 1009.4 |
| 20260507080046 | 16 | 315 | 1.6 | 17.7 | 0.00 | 0.00 | 0.00 | 100 | 1009.4 |
| 20260507075533 | 17 | 0 | 9.7 | 17.7 | 0.00 | 0.00 | 0.00 | 100 | 1009.4 |
| 20260507074532 | 15 | 54 | 1.6 | 8.0 | 0.00 | 0.00 | 0.00 | 100 | 1009.4 |
| 20260507074031 | 15 | 46 | 0.0 | 1.6 | 0.00 | 0.00 | 0.00 | 100 | 1009.4 |
| 20260507073520 | 14 | 46 | 0.0 | 1.6 | 0.00 | 0.00 | 0.00 | 100 | 1009.4 |
| 20260507073240 | 14 | 46 | 0.0 | 0.0 | 0.00 | 0.00 | 0.00 | 100 | 1009.4 |
| 20260507072457 | 15 | 46 | 0.0 | 0.0 | 0.00 | 0.00 | 0.00 | 100 | 1009.4 |
| 20260507072152 | 15 | 46 | 0.0 | 0.0 | 0.00 | 0.00 | 0.00 | 100 | 1009.4 |
| 20260507071645 | 14 | 46 | 0.0 | 0.0 | 0.00 | 0.00 | 0.00 | 100 | 1009.4 |
| 20260507070412 | 15 | 46 | 0.0 | 3.2 | 0.00 | 0.00 | 0.00 | 100 | 1009.4 |
| 20260507065859 | 15 | 46 | 0.0 | 3.2 | 0.00 | 0.00 | 0.00 | 100 | 1009.4 |
| 20260507065611 | 15 | 46 | 0.0 | 6.4 | 0.00 | 0.00 | 0.00 | 100 | 1009.4 |
| 20260507064821 | 14 | 46 | 0.0 | 6.4 | 0.00 | 0.00 | 0.00 | 100 | 1009.4 |
| 20260507064310 | 14 | 254 | 0.0 | 1.6 | 0.00 | 0.00 | 0.00 | 100 | 1009.4 |
| 20260507063804 | 15 | 120 | 0.0 | 0.0 | 0.00 | 0.00 | 0.00 | 100 | 1009.4 |
| 20260507063522 | 15 | 120 | 0.0 | 0.0 | 0.00 | 0.00 | 0.00 | 100 | 1009.4 |
| 20260507062758 | 15 | 120 | 0.0 | 0.0 | 0.00 | 0.00 | 0.00 | 100 | 1009.4 |
| 20260507062255 | 15 | 120 | 0.0 | 0.0 | 0.00 | 0.00 | 0.00 | 100 | 1009.4 |
| 20260507061755 | 15 | 120 | 0.0 | 0.0 | 0.00 | 0.00 | 0.00 | 100 | 1009.4 |
| 20260507061248 | 15 | 120 | 0.0 | 0.0 | 0.00 | 0.00 | 0.00 | 100 | 1009.4 |
| 20260507060735 | 15 | 120 | 0.0 | 0.0 | 0.00 | 0.00 | 0.00 | 100 | 1009.4 |
| 20260507060444 | 15 | 120 | 0.0 | 0.0 | 0.00 | 0.00 | 0.00 | 100 | 1009.4 |
| 20260507055714 | 15 | 120 | 0.0 | 0.0 | 0.00 | 0.00 | 0.00 | 100 | 1009.4 |
| 20260507055211 | 16 | 120 | 0.0 | 0.0 | 0.00 | 0.00 | 0.00 | 100 | 1009.4 |
| 20260507054706 | 16 | 120 | 0.0 | 0.0 | 0.00 | 0.00 | 0.00 | 100 | 1009.4 |
| 20260507054202 | 16 | 120 | 0.0 | 0.0 | 0.00 | 0.00 | 0.00 | 100 | 1009.4 |
| 20260507053643 | 16 | 120 | 0.0 | 0.0 | 0.00 | 0.00 | 0.00 | 100 | 1009.4 |
| 20260507053400 | 17 | 120 | 0.0 | 3.2 | 0.00 | 0.00 | 0.00 | 100 | 1009.4 |
| 20260507052635 | 17 | 120 | 0.0 | 3.2 | 0.00 | 0.00 | 0.00 | 100 | 1009.4 |
| 20260507052135 | 17 | 120 | 0.0 | 3.2 | 0.00 | 0.00 | 0.00 | 100 | 1009.4 |
| 20260507051628 | 17 | 257 | 0.0 | 0.0 | 0.00 | 0.00 | 0.00 | 100 | 1009.4 |
| 20260507051118 | 17 | 257 | 0.0 | 0.0 | 0.00 | 0.00 | 0.00 | 100 | 1009.4 |
| 20260507050617 | 17 | 257 | 0.0 | 0.0 | 0.00 | 0.00 | 0.00 | 100 | 1009.4 |
| 20260507050051 | 18 | 257 | 0.0 | 0.0 | 0.00 | 0.00 | 0.00 | 100 | 1009.4 |
| 20260507045804 | 18 | 257 | 0.0 | 0.0 | 0.00 | 0.00 | 0.00 | 100 | 1009.4 |
| 20260507045032 | 18 | 257 | 0.0 | 0.0 | 0.00 | 0.00 | 0.00 | 100 | 1009.4 |
| 20260507044520 | 19 | 257 | 0.0 | 6.4 | 0.00 | 0.00 | 0.00 | 100 | 1009.4 |
| 20260507044011 | 20 | 257 | 0.0 | 6.4 | 0.00 | 0.00 | 0.00 | 100 | 1009.4 |
| 20260507043511 | 21 | 257 | 0.0 | 6.4 | 0.00 | 0.00 | 0.00 | 100 | 1009.4 |
| 20260507043236 | 22 | 278 | 4.8 | 9.7 | 0.00 | 0.00 | 0.00 | 100 | 1009.4 |
| 20260507042507 | 22 | 272 | 6.4 | 9.7 | 0.00 | 0.00 | 0.00 | 100 | 1009.4 |
| 20260507042007 | 22 | 285 | 8.0 | 9.7 | 0.00 | 0.00 | 0.00 | 100 | 1009.4 |
| 20260507041506 | 22 | 265 | 8.0 | 9.7 | 0.00 | 0.00 | 0.00 | 100 | 1009.4 |
| 20260507041006 | 22 | 248 | 8.0 | 9.7 | 0.00 | 0.00 | 0.00 | 100 | 1009.4 |
| 20260507040505 | 22 | 254 | 6.4 | 8.0 | 0.00 | 0.00 | 0.00 | 100 | 1009.4 |
| 20260507040004 | 22 | 261 | 4.8 | 8.0 | 0.00 | 0.00 | 0.00 | 100 | 1009.4 |
| 20260507035503 | 22 | 274 | 4.8 | 9.7 | 0.00 | 0.00 | 0.00 | 100 | 1009.4 |
| 20260507035002 | 23 | 265 | 6.4 | 11.3 | 0.00 | 0.00 | 0.00 | 100 | 1009.4 |
| 20260507034720 | 23 | 257 | 8.0 | 11.3 | 0.00 | 0.00 | 0.00 | 100 | 1009.4 |
| 20260507034228 | 23 | 250 | 8.0 | 12.9 | 0.00 | 0.00 | 0.00 | 100 | 1009.4 |
| 20260507033725 | 23 | 258 | 8.0 | 14.5 | 0.00 | 0.00 | 0.00 | 100 | 1009.4 |
| 20260507033000 | 23 | 261 | 9.7 | 14.5 | 0.00 | 0.00 | 0.00 | 100 | 1009.4 |
| 20260507032500 | 23 | 258 | 11.3 | 16.1 | 0.00 | 0.00 | 0.00 | 100 | 1009.4 |
| 20260507032226 | 23 | 278 | 11.3 | 16.1 | 0.00 | 0.00 | 0.00 | 100 | 1009.4 |
| 20260507031458 | 23 | 261 | 12.9 | 16.1 | 0.00 | 0.00 | 0.00 | 100 | 1009.4 |
| 20260507030958 | 23 | 289 | 12.9 | 16.1 | 0.00 | 0.00 | 0.00 | 100 | 1009.4 |
| 20260507030458 | 23 | 260 | 11.3 | 16.1 | 0.00 | 0.00 | 0.00 | 100 | 1009.4 |
| 20260507025957 | 23 | 261 | 11.3 | 14.5 | 0.00 | 0.00 | 0.00 | 100 | 1009.4 |
| 20260507025456 | 23 | 274 | 11.3 | 14.5 | 0.00 | 0.00 | 0.00 | 100 | 1009.4 |
| 20260507024956 | 24 | 265 | 9.7 | 16.1 | 0.00 | 0.00 | 0.00 | 100 | 1009.4 |
| 20260507024455 | 24 | 282 | 9.7 | 17.7 | 0.00 | 0.00 | 0.00 | 100 | 1009.4 |
| 20260507023955 | 24 | 251 | 9.7 | 17.7 | 0.00 | 0.00 | 0.00 | 100 | 1009.4 |
| 20260507023454 | 24 | 254 | 9.7 | 14.5 | 0.00 | 0.00 | 0.00 | 100 | 1009.4 |
| 20260507022953 | 23 | 271 | 8.0 | 16.1 | 0.00 | 0.00 | 0.00 | 100 | 1009.4 |
| 20260507022453 | 24 | 265 | 9.7 | 17.7 | 0.00 | 0.00 | 0.00 | 100 | 1009.4 |
| 20260507022219 | 24 | 255 | 11.3 | 17.7 | 0.00 | 0.00 | 0.00 | 100 | 1009.4 |
| 20260507021451 | 24 | 230 | 11.3 | 14.5 | 0.00 | 0.00 | 0.00 | 100 | 1009.4 |
| 20260507020950 | 24 | 260 | 11.3 | 14.5 | 0.00 | 0.00 | 0.00 | 100 | 1009.4 |
| 20260507020717 | 25 | 258 | 9.7 | 14.5 | 0.00 | 0.00 | 0.00 | 100 | 1009.4 |
| 20260507020210 | 25 | 267 | 9.7 | 14.5 | 0.00 | 0.00 | 0.00 | 100 | 1009.4 |
| 20260507015447 | 25 | 271 | 9.7 | 16.1 | 0.00 | 0.00 | 0.00 | 100 | 1009.4 |
| 20260507014947 | 25 | 285 | 9.7 | 16.1 | 0.00 | 0.00 | 0.00 | 100 | 1009.4 |
| 20260507014446 | 25 | 277 | 14.5 | 16.1 | 0.00 | 0.00 | 0.00 | 100 | 1009.4 |
| 20260507013943 | 25 | 261 | 8.0 | 16.1 | 0.00 | 0.00 | 0.00 | 100 | 1009.4 |
| 20260507012942 | 26 | 255 | 8.0 | 14.5 | 0.00 | 0.00 | 0.00 | 100 | 1009.4 |
| 20260507012707 | 26 | 246 | 8.0 | 12.9 | 0.00 | 0.00 | 0.00 | 100 | 1009.4 |
| 20260507011941 | 26 | 248 | 4.8 | 17.7 | 0.00 | 0.00 | 0.00 | 100 | 1009.4 |
| 20260507011439 | 26 | 246 | 8.0 | 17.7 | 0.00 | 0.00 | 0.00 | 100 | 1009.4 |
| 20260507010439 | 26 | 261 | 8.0 | 16.1 | 0.00 | 0.00 | 0.00 | 100 | 1009.4 |
| 20260507005938 | 26 | 225 | 4.8 | 17.7 | 0.00 | 0.00 | 0.00 | 100 | 1009.4 |
| 20260507005658 | 26 | 291 | 9.7 | 19.3 | 0.00 | 0.00 | 0.00 | 100 | 1009.4 |
| 20260507004937 | 26 | 237 | 11.3 | 19.3 | 0.00 | 0.00 | 0.00 | 100 | 1009.4 |
| 20260507004436 | 26 | 247 | 14.5 | 16.1 | 0.00 | 0.00 | 0.00 | 100 | 1009.4 |
| 20260507003936 | 26 | 236 | 8.0 | 14.5 | 0.00 | 0.00 | 0.00 | 100 | 1009.4 |
| 20260507003653 | 26 | 250 | 9.7 | 17.7 | 0.00 | 0.00 | 0.00 | 100 | 1009.4 |
| 20260507002935 | 26 | 237 | 9.7 | 22.5 | 0.00 | 0.00 | 0.00 | 100 | 1009.4 |
| 20260507002434 | 26 | 255 | 12.9 | 22.5 | 0.00 | 0.00 | 0.00 | 100 | 1009.4 |
| 20260507001933 | 26 | 261 | 17.7 | 22.5 | 0.00 | 0.00 | 0.00 | 100 | 1009.4 |
| 20260507001433 | 26 | 243 | 14.5 | 17.7 | 0.00 | 0.00 | 0.00 | 100 | 1009.4 |
| 20260507000932 | 26 | 232 | 6.4 | 17.7 | 0.00 | 0.00 | 0.00 | 100 | 1009.4 |
| 20260507000431 | 26 | 236 | 9.7 | 24.1 | 0.00 | 0.00 | 0.00 | 100 | 1009.4 |
| 20260506235931 | 26 | 232 | 9.7 | 24.1 | 0.00 | 0.00 | 0.00 | 100 | 1009.4 |
| 20260506235431 | 26 | 243 | 17.7 | 24.1 | 0.00 | 0.00 | 0.00 | 100 | 1009.4 |
| 20260506234929 | 26 | 243 | 19.3 | 24.1 | 0.00 | 0.00 | 0.00 | 100 | 1009.4 |
| 20260506234428 | 26 | 251 | 6.4 | 16.1 | 0.00 | 0.00 | 0.00 | 100 | 1009.4 |
| 20260506232927 | 26 | 241 | 16.1 | 22.5 | 0.00 | 0.00 | 0.00 | 100 | 1009.4 |
| 20260506232426 | 26 | 271 | 16.1 | 22.5 | 0.00 | 0.00 | 0.00 | 100 | 1009.4 |
| 20260506231926 | 27 | 254 | 6.4 | 19.3 | 0.00 | 0.00 | 0.00 | 100 | 1009.4 |
| 20260506231425 | 27 | 298 | 11.3 | 17.7 | 0.00 | 0.00 | 0.00 | 100 | 1009.4 |
| 20260506230925 | 26 | 195 | 0.0 | 17.7 | 0.00 | 0.00 | 0.00 | 100 | 1009.4 |
| 20260506230424 | 26 | 286 | 11.3 | 27.4 | 0.00 | 0.00 | 0.00 | 100 | 1009.4 |
| 20260506225924 | 26 | 192 | 1.6 | 27.4 | 0.00 | 0.00 | 0.00 | 100 | 1009.4 |
| 20260506225423 | 26 | 281 | 14.5 | 24.1 | 0.00 | 0.00 | 0.00 | 100 | 1009.4 |
| 20260506224922 | 27 | 232 | 16.1 | 24.1 | 0.00 | 0.00 | 0.00 | 100 | 1009.4 |
| 20260506224421 | 26 | 315 | 12.9 | 24.1 | 0.00 | 0.00 | 0.00 | 100 | 1009.4 |
| 20260506223921 | 27 | 313 | 11.3 | 22.5 | 0.00 | 0.00 | 0.00 | 100 | 1009.4 |
| 20260506223420 | 27 | 268 | 12.9 | 20.9 | 0.00 | 0.00 | 0.00 | 100 | 1009.4 |
| 20260506222920 | 26 | 32 | 0.0 | 19.3 | 0.00 | 0.00 | 0.00 | 100 | 1009.4 |
| 20260506222407 | 26 | 336 | 9.7 | 20.9 | 0.00 | 0.00 | 0.00 | 100 | 1009.4 |
| 20260506221907 | 26 | 309 | 11.3 | 20.9 | 0.00 | 0.00 | 0.00 | 100 | 1009.4 |
| 20260506221406 | 26 | 226 | 9.7 | 20.9 | 0.00 | 0.00 | 0.00 | 100 | 1009.4 |
| 20260506220905 | 27 | 222 | 11.3 | 17.7 | 0.00 | 0.00 | 0.00 | 100 | 1009.4 |
| 20260506220400 | 26 | 358 | 6.4 | 20.9 | 0.00 | 0.00 | 0.00 | 100 | 1009.4 |
| 20260506215858 | 26 | 323 | 12.9 | 20.9 | 0.00 | 0.00 | 0.00 | 100 | 1009.4 |
| 20260506215357 | 26 | 255 | 1.6 | 17.7 | 0.00 | 0.00 | 0.00 | 100 | 1009.4 |
| 20260506214856 | 26 | 213 | 6.4 | 17.7 | 0.00 | 0.00 | 0.00 | 100 | 1009.4 |
| 20260506214356 | 27 | 241 | 11.3 | 17.7 | 0.00 | 0.00 | 0.00 | 100 | 1009.4 |
| 20260506213855 | 27 | 198 | 1.6 | 12.9 | 0.00 | 0.00 | 0.00 | 100 | 1009.4 |
| 20260506213349 | 26 | 209 | 8.0 | 11.3 | 0.00 | 0.00 | 0.00 | 100 | 1009.4 |
| 20260506212848 | 26 | 253 | 3.2 | 17.7 | 0.00 | 0.00 | 0.00 | 100 | 1009.4 |
| 20260506212336 | 26 | 212 | 6.4 | 17.7 | 0.00 | 0.00 | 0.00 | 100 | 1009.4 |
| 20260506211835 | 26 | 171 | 3.2 | 12.9 | 0.00 | 0.00 | 0.00 | 100 | 1009.4 |
| 20260506211335 | 26 | 189 | 6.4 | 17.7 | 0.00 | 0.00 | 0.00 | 100 | 1009.4 |
| 20260506210834 | 26 | 223 | 0.0 | 24.1 | 0.00 | 0.00 | 0.00 | 100 | 1009.4 |
| 20260506210552 | 26 | 285 | 11.3 | 24.1 | 0.00 | 0.00 | 0.00 | 100 | 1009.4 |
| 20260506205831 | 26 | 265 | 14.5 | 22.5 | 0.00 | 0.00 | 0.00 | 100 | 1009.4 |
| 20260506205330 | 26 | 191 | 6.4 | 16.1 | 0.00 | 0.00 | 0.00 | 100 | 1009.4 |
| 20260506204829 | 26 | 272 | 11.3 | 24.1 | 0.00 | 0.00 | 0.00 | 100 | 1009.4 |
| 20260506204553 | 26 | 255 | 1.6 | 24.1 | 0.00 | 0.00 | 0.00 | 100 | 1009.4 |
| 20260506203816 | 27 | 264 | 19.3 | 24.1 | 0.00 | 0.00 | 0.00 | 100 | 1009.4 |
| 20260506203316 | 26 | 246 | 12.9 | 17.7 | 0.00 | 0.00 | 0.00 | 100 | 1009.4 |
| 20260506202815 | 26 | 194 | 11.3 | 19.3 | 0.00 | 0.00 | 0.00 | 100 | 1009.4 |
| 20260506202314 | 26 | 178 | 9.7 | 20.9 | 0.00 | 0.00 | 0.00 | 100 | 1009.4 |
| 20260506201814 | 26 | 208 | 11.3 | 20.9 | 0.00 | 0.00 | 0.00 | 100 | 1009.4 |
| 20260506201313 | 25 | 191 | 8.0 | 19.3 | 0.00 | 0.00 | 0.00 | 100 | 1009.4 |
| 20260506200812 | 26 | 184 | 6.4 | 19.3 | 0.00 | 0.00 | 0.00 | 100 | 1009.4 |
| 20260506200312 | 26 | 251 | 11.3 | 22.5 | 0.00 | 0.00 | 0.00 | 100 | 1009.4 |
| 20260506195811 | 25 | 241 | 9.7 | 22.5 | 0.00 | 0.00 | 0.00 | 100 | 1009.4 |
| 20260506195310 | 25 | 257 | 4.8 | 17.7 | 0.00 | 0.00 | 0.00 | 100 | 1009.4 |
| 20260506194810 | 25 | 30 | 1.6 | 19.3 | 0.00 | 0.00 | 0.00 | 100 | 1009.4 |
| 20260506194309 | 25 | 282 | 4.8 | 19.3 | 0.00 | 0.00 | 0.00 | 100 | 1009.4 |
| 20260506194036 | 26 | 253 | 11.3 | 22.5 | 0.00 | 0.00 | 0.00 | 100 | 1009.4 |
| 20260506193308 | 26 | 213 | 12.9 | 22.5 | 0.00 | 0.00 | 0.00 | 100 | 1009.4 |
| 20260506192808 | 25 | 255 | 14.5 | 20.9 | 0.00 | 0.00 | 0.00 | 100 | 1009.4 |
| 20260506192307 | 26 | 205 | 9.7 | 20.9 | 0.00 | 0.00 | 0.00 | 100 | 1009.4 |
| 20260506191806 | 25 | 201 | 8.0 | 17.7 | 0.00 | 0.00 | 0.00 | 100 | 1009.4 |
| 20260506191306 | 24 | 187 | 6.4 | 16.1 | 0.00 | 0.00 | 0.00 | 100 | 1009.4 |
| 20260506190805 | 25 | 192 | 9.7 | 20.9 | 0.00 | 0.00 | 0.00 | 100 | 1009.4 |
| 20260506190304 | 24 | 189 | 1.6 | 20.9 | 0.00 | 0.00 | 0.00 | 100 | 1009.4 |
| 20260506185804 | 24 | 201 | 12.9 | 19.3 | 0.00 | 0.00 | 0.00 | 100 | 1009.4 |
| 20260506185306 | 25 | 241 | 12.9 | 19.3 | 0.00 | 0.00 | 0.00 | 100 | 1009.4 |
| 20260506184802 | 25 | 262 | 12.9 | 19.3 | 0.00 | 0.00 | 0.00 | 100 | 1009.4 |
| 20260506184302 | 24 | 227 | 4.8 | 22.5 | 0.00 | 0.00 | 0.00 | 100 | 1009.4 |
| 20260506183801 | 25 | 195 | 9.7 | 22.5 | 0.00 | 0.00 | 0.00 | 100 | 1009.4 |
| 20260506183301 | 24 | 250 | 9.7 | 19.3 | 0.00 | 0.00 | 0.00 | 100 | 1009.4 |
| 20260506182800 | 25 | 253 | 14.5 | 19.3 | 0.00 | 0.00 | 0.00 | 100 | 1009.4 |
| 20260506182516 | 23 | 70 | 1.6 | 12.9 | 0.00 | 0.00 | 0.00 | 100 | 1009.4 |
| 20260506181749 | 24 | 220 | 3.2 | 12.9 | 0.00 | 0.00 | 0.00 | 100 | 1009.4 |
| 20260506181248 | 23 | 340 | 4.8 | 20.9 | 0.00 | 0.00 | 0.00 | 100 | 1009.4 |
| 20260506180745 | 23 | 223 | 9.7 | 20.9 | 0.00 | 0.00 | 0.00 | 100 | 1009.4 |
| 20260506180505 | 23 | 209 | 9.7 | 19.3 | 0.00 | 0.00 | 0.00 | 100 | 1009.4 |
| 20260506175744 | 23 | 192 | 9.7 | 19.3 | 0.00 | 0.00 | 0.00 | 100 | 1009.4 |
| 20260506175244 | 23 | 241 | 9.7 | 19.3 | 0.00 | 0.00 | 0.00 | 100 | 1009.4 |
| 20260506174743 | 24 | 243 | 11.3 | 16.1 | 0.00 | 0.00 | 0.00 | 100 | 1009.4 |
| 20260506174243 | 23 | 189 | 0.0 | 19.3 | 0.00 | 0.00 | 0.00 | 100 | 1009.4 |
| 20260506173732 | 22 | 312 | 8.0 | 19.3 | 0.00 | 0.00 | 0.00 | 100 | 1009.4 |
| 20260506173231 | 23 | 261 | 9.7 | 17.7 | 0.00 | 0.00 | 0.00 | 100 | 1009.4 |
| 20260506172731 | 23 | 239 | 11.3 | 22.5 | 0.00 | 0.00 | 0.00 | 100 | 1009.4 |
| 20260506172230 | 23 | 234 | 12.9 | 22.5 | 0.00 | 0.00 | 0.00 | 100 | 1009.4 |
| 20260506171947 | 23 | 243 | 11.3 | 14.5 | 0.00 | 0.00 | 0.00 | 100 | 1009.4 |
| 20260506171229 | 23 | 261 | 6.4 | 14.5 | 0.00 | 0.00 | 0.00 | 100 | 1009.4 |
| 20260506170728 | 22 | 192 | 3.2 | 16.1 | 0.00 | 0.00 | 0.00 | 100 | 1009.4 |
| 20260506170218 | 22 | 281 | 11.3 | 17.7 | 0.00 | 0.00 | 0.00 | 100 | 1009.4 |
| 20260506165717 | 22 | 219 | 9.7 | 17.7 | 0.00 | 0.00 | 0.00 | 100 | 1009.4 |
| 20260506165216 | 22 | 257 | 9.7 | 12.9 | 0.00 | 0.00 | 0.00 | 100 | 1009.4 |
| 20260506164716 | 22 | 240 | 4.8 | 14.5 | 0.00 | 0.00 | 0.00 | 100 | 1009.4 |
| 20260506164215 | 22 | 241 | 9.7 | 14.5 | 0.00 | 0.00 | 0.00 | 100 | 1009.4 |
| 20260506163714 | 21 | 250 | 4.8 | 9.7 | 0.00 | 0.00 | 0.00 | 100 | 1009.4 |
| 20260506163213 | 21 | 248 | 4.8 | 12.9 | 0.00 | 0.00 | 0.00 | 100 | 1009.4 |
| 20260506162713 | 21 | 122 | 4.8 | 12.9 | 0.00 | 0.00 | 0.00 | 100 | 1009.4 |
| 20260506162212 | 21 | 244 | 6.4 | 12.9 | 0.00 | 0.00 | 0.00 | 100 | 1009.4 |
| 20260506161712 | 20 | 330 | 1.6 | 11.3 | 0.00 | 0.00 | 0.00 | 100 | 1009.4 |
| 20260506161435 | 21 | 261 | 6.4 | 11.3 | 0.00 | 0.00 | 0.00 | 100 | 1009.4 |
| 20260506160705 | 20 | 243 | 3.2 | 11.3 | 0.00 | 0.00 | 0.00 | 100 | 1009.4 |
| 20260506160204 | 20 | 199 | 3.2 | 14.5 | 0.00 | 0.00 | 0.00 | 100 | 1009.4 |
| 20260506155653 | 20 | 164 | 1.6 | 14.5 | 0.00 | 0.00 | 0.00 | 100 | 1009.4 |
| 20260506155152 | 20 | 257 | 8.0 | 14.5 | 0.00 | 0.00 | 0.00 | 100 | 1009.4 |
| 20260506154653 | 20 | 209 | 3.2 | 11.3 | 0.00 | 0.00 | 0.00 | 100 | 1009.4 |
| 20260506154149 | 20 | 270 | 3.2 | 11.3 | 0.00 | 0.00 | 0.00 | 100 | 1009.4 |
| 20260506153648 | 19 | 251 | 6.4 | 9.7 | 0.00 | 0.00 | 0.00 | 100 | 1009.4 |
| 20260506153148 | 19 | 261 | 3.2 | 11.3 | 0.00 | 0.00 | 0.00 | 100 | 1009.4 |
| 20260506152643 | 18 | 236 | 1.6 | 11.3 | 0.00 | 0.00 | 0.00 | 100 | 1009.4 |
| 20260506152143 | 19 | 226 | 6.4 | 9.7 | 0.00 | 0.00 | 0.00 | 100 | 1009.4 |
| 20260506151643 | 18 | 226 | 4.8 | 11.3 | 0.00 | 0.00 | 0.00 | 100 | 1009.4 |
| 20260506151400 | 18 | 241 | 6.4 | 11.3 | 0.00 | 0.00 | 0.00 | 100 | 1009.4 |
| 20260506150641 | 18 | 219 | 6.4 | 11.3 | 0.00 | 0.00 | 0.00 | 100 | 1009.4 |
| 20260506145639 | 18 | 262 | 4.8 | 8.0 | 0.00 | 0.00 | 0.00 | 100 | 1009.4 |
| 20260506145139 | 18 | 227 | 0.0 | 3.2 | 0.00 | 0.00 | 0.00 | 100 | 1009.4 |
| 20260506144639 | 18 | 220 | 0.0 | 0.0 | 0.00 | 0.00 | 0.00 | 100 | 1009.4 |
| 20260506144135 | 18 | 220 | 0.0 | 0.0 | 0.00 | 0.00 | 0.00 | 100 | 1009.4 |
| 20260506143631 | 17 | 220 | 0.0 | 0.0 | 0.00 | 0.00 | 0.00 | 100 | 1009.4 |
| 20260506143128 | 17 | 220 | 0.0 | 0.0 | 0.00 | 0.00 | 0.00 | 100 | 1009.4 |
| 20260506142626 | 17 | 220 | 0.0 | 0.0 | 0.00 | 0.00 | 0.00 | 100 | 1009.4 |
| 20260506142121 | 16 | 220 | 0.0 | 0.0 | 0.00 | 0.00 | 0.00 | 100 | 1009.4 |
| 20260506141604 | 16 | 220 | 0.0 | 0.0 | 0.00 | 0.00 | 0.00 | 100 | 1009.4 |
| 20260506141055 | 16 | 220 | 0.0 | 0.0 | 0.00 | 0.00 | 0.00 | 100 | 1009.4 |
| 20260506140813 | 16 | 220 | 0.0 | 0.0 | 0.00 | 0.00 | 0.00 | 100 | 1009.4 |
| 20260506140036 | 15 | 220 | 0.0 | 0.0 | 0.00 | 0.00 | 0.00 | 100 | 1009.4 |
| 20260506135526 | 15 | 220 | 0.0 | 0.0 | 0.00 | 0.00 | 0.00 | 100 | 1009.4 |
| 20260506135013 | 15 | 220 | 0.0 | 0.0 | 0.00 | 0.00 | 0.00 | 100 | 1009.4 |
| 20260506134506 | 14 | 220 | 0.0 | 0.0 | 0.00 | 0.00 | 0.00 | 100 | 1009.4 |
| 20260506134005 | 13 | 220 | 0.0 | 0.0 | 0.00 | 0.00 | 0.00 | 100 | 1009.4 |
| 20260506133501 | 12 | 220 | 0.0 | 0.0 | 0.00 | 0.00 | 0.00 | 100 | 1009.4 |
| 20260506133216 | 11 | 220 | 0.0 | 0.0 | 0.00 | 0.00 | 0.00 | 100 | 1009.4 |
| 20260506132454 | 11 | 220 | 0.0 | 0.0 | 0.00 | 0.00 | 0.00 | 100 | 1009.4 |
| 20260506131951 | 10 | 220 | 0.0 | 0.0 | 0.00 | 0.00 | 0.00 | 100 | 1009.4 |
| 20260506131439 | 9 | 220 | 0.0 | 0.0 | 0.00 | 0.00 | 0.00 | 100 | 1009.4 |
| 20260506130929 | 10 | 220 | 0.0 | 0.0 | 0.00 | 0.00 | 0.00 | 100 | 1009.4 |
| 20260506130637 | 9 | 220 | 0.0 | 0.0 | 0.00 | 0.00 | 0.00 | 100 | 1009.4 |
| 20260506125905 | 9 | 220 | 0.0 | 0.0 | 0.00 | 0.00 | 0.00 | 100 | 1009.4 |
| 20260506125359 | 10 | 220 | 0.0 | 0.0 | 0.00 | 0.00 | 0.00 | 100 | 1009.4 |